Weather History for Mo I Rana, Norway

Change the Weather History Date:

Tuesday, February 12, 2013

  Actual Average Record
Temperature  
Mean Temperature -4 °F -  
Max Temperature 3 °F 26 °F 42 °F (2000)
Min Temperature -11 °F 16 °F -11 °F (2013)
Degree Days  
Heating Degree Days 69    
Moisture  
Dew Point -10 °F    
Average Humidity 79    
Maximum Humidity 84    
Minimum Humidity 77    
Precipitation  
Precipitation 0.00 in - - ()
Sea Level Pressure  
Sea Level Pressure 30.40 in    
Wind  
Wind Speed 3 mph ()    
Max Wind Speed 8 mph    
Max Gust Speed -    
Averages and records for this station are not official NWS values.
T = Trace of Precipitation, MM = Missing Value Source: Averaged Metar Reports

Daily Weather History Graph

Daily Weather History Graph

Search for Another Location

Airport:

Trip Planner

Search our weather history database for the weather conditions in past years. The results will help you decide how hot, cold, wet, or windy it might be!

Date:

Astronomy

Feb. 12, 2013 Rise Set
Actual Time 8:21 AM CET 4:14 PM CET
Civil Twilight 7:23 AM CET 5:12 PM CET
Nautical Twilight 6:21 AM CET 6:13 PM CET
Astronomical Twilight 5:21 AM CET 7:13 PM CET
Moon 7:48 AM CET (2/12) 8:31 PM CET (2/12)
Length of Visible Light 9h 48m
Length of Day
7h 52m
Waxing Crescent, 6% of the Moon is Illuminated
Feb 12
Waxing Crescent
Feb 17
First Quarter
Feb 25
Full
Mar 4
Last Quarter
Mar 11
New

Hourly Weather History & Observations

Time (CET) Temp. Windchill Dew Point Humidity Pressure Visibility Wind Dir Wind Speed Gust Speed Precip Events Conditions
1:50 AM -5.8 °F -18.4 °F -9.4 °F 84% 30.42 in - North 5.8 mph - N/A   Clear
5:50 AM -7.6 °F -16.5 °F -13.0 °F 77% 30.42 in - North 3.5 mph - N/A   Clear
6:20 AM -9.4 °F -18.6 °F -13.0 °F 84% 30.42 in - North 3.5 mph - N/A   Clear
7:20 AM -9.4 °F - -13.0 °F 84% 30.42 in - Variable 1.2 mph - N/A   Clear
7:50 AM -11.2 °F - -14.8 °F 84% 30.42 in - Variable 1.2 mph - N/A   Clear
8:50 AM -9.4 °F -18.6 °F -14.8 °F 77% 30.42 in - North 3.5 mph - N/A   Clear
9:20 AM -9.4 °F - -14.8 °F 77% 30.42 in - NW 2.3 mph - N/A   Clear
9:50 AM -9.4 °F - -14.8 °F 77% 30.42 in - North 2.3 mph - N/A   Clear
10:50 AM -9.4 °F - -13.0 °F 84% 30.42 in - East 1.2 mph - N/A   Clear
11:50 AM -5.8 °F - -11.2 °F 77% 30.42 in - NNW 1.2 mph - N/A   Clear
12:50 PM 1.4 °F - -4.0 °F 78% 30.42 in - NNW 1.2 mph - N/A   Clear
1:50 PM 1.4 °F - -4.0 °F 78% 30.42 in - NW 2.3 mph - N/A   Clear
2:20 PM 3.2 °F -4.2 °F -2.2 °F 78% 30.39 in - NNW 3.5 mph - N/A   Clear
3:20 PM -0.4 °F -10.4 °F -5.8 °F 78% 30.39 in - NW 4.6 mph - N/A   Clear
3:50 PM -2.2 °F - -7.6 °F 78% 30.39 in - Variable 2.3 mph - N/A   Clear
4:20 PM -2.2 °F - -7.6 °F 78% 30.39 in - Variable 2.3 mph - N/A   Clear
4:50 PM -4.0 °F - -9.4 °F 78% 30.39 in - Variable 2.3 mph - N/A   Clear
5:20 PM -4.0 °F - -9.4 °F 78% 30.39 in - Variable 2.3 mph - N/A   Clear
5:50 PM -4.0 °F -16.3 °F -9.4 °F 78% 30.39 in - NNW 5.8 mph - N/A   Clear
6:20 PM -2.2 °F -16.8 °F -7.6 °F 78% 30.39 in - North 8.1 mph - N/A   Clear
6:50 PM -2.2 °F -15.6 °F -7.6 °F 78% 30.39 in - NNW 6.9 mph - N/A   Clear
7:20 PM -2.2 °F - -7.6 °F 78% 30.36 in - Variable 2.3 mph - N/A   Clear
7:50 PM -4.0 °F -12.4 °F -9.4 °F 78% 30.39 in - NNW 3.5 mph - N/A   Clear
8:20 PM -5.8 °F -19.9 °F -9.4 °F 84% 30.39 in - NNW 6.9 mph - N/A   Clear
8:50 PM -4.0 °F -14.6 °F -9.4 °F 78% 30.39 in - WNW 4.6 mph - N/A   Clear
9:20 PM -5.8 °F -16.7 °F -11.2 °F 77% 30.39 in - NW 4.6 mph - N/A   Clear
9:50 PM -5.8 °F - -11.2 °F 77% 30.39 in - Variable 2.3 mph - N/A   Clear
10:20 PM -4.0 °F -14.6 °F -9.4 °F 78% 30.36 in - NNW 4.6 mph - N/A   Clear
10:50 PM -5.8 °F -14.5 °F -9.4 °F 84% 30.36 in - Variable 3.5 mph - N/A   Clear